Tianji

operational
NORAD ID: 52389 Int'l Des: 2022-046 Owner: CGSTL Country: CN
LEOCIRCULARRETROGRADE

About Tianji

Description loading...

Live Position

Loading 3D Globe...

Upcoming Passes

Altitude History

Altitude vs Time

uPlot chart will show altitude changes over time

Two-Line Element Set

1 52389U 22046B 26062.12627690 .00163521 00000-0 11374-2 0 9996
2 52389 97.4914 176.5382 0001363 215.2054 144.9120 15.73903270213832
Epoch: Mar 3, 2026 • Age: 36 hours

Current Status

Altitude 360.2 km
Velocity 7.69 km/s
Sub-Earth Point -38.41°S, 9.87°E
Launch Date Apr 30, 2022
Age 3.8 years
Type other

Technical Details

Classification Payload
Mass 43.00 kg
Dry Mass 43.00 kg
Total Mass 43.00 kg
Length 1.50 m
Diameter 1.00 m
Span 1.50 m
Shape Box
Manufacturer CGSTL
Bus Type JL-1
Phase Status In Orbit
Owner/State CGSTL/CN

Large Constellations

Loading constellations...